Weather History for Taloyoak, NU

Change the Weather History Date:

Tuesday, January 15, 2013

  Actual Average Record
Temperature  
Mean Temperature -33 °F -  
Max Temperature -16 °F -20 °F 3 °F (2011)
Min Temperature -50 °F -31 °F -50 °F (2013)
Degree Days  
Heating Degree Days 98    
Moisture  
Dew Point -29 °F    
Average Humidity 70    
Maximum Humidity 84    
Minimum Humidity 52    
Precipitation  
Precipitation 0.03 in - - ()
Sea Level Pressure  
Sea Level Pressure 29.71 in    
Wind  
Wind Speed 4 mph ()    
Max Wind Speed 13 mph    
Max Gust Speed -    
Visibility 9.5 miles    
Events Fog , Snow    
Averages and records for this station are not official NWS values.
T = Trace of Precipitation, MM = Missing Value Source: Averaged Metar Reports

Daily Weather History Graph

Daily Weather History Graph

Search for Another Location

Airport:

Trip Planner

Search our weather history database for the weather conditions in past years. The results will help you decide how hot, cold, wet, or windy it might be!

Date:

Astronomy

Jan. 15, 2013 Rise Set
Actual Time 11:43 AM CST 1:05 PM CST
Civil Twilight 9:24 AM CST 3:23 PM CST
Nautical Twilight 7:56 AM CST 4:52 PM CST
Astronomical Twilight 6:42 AM CST 6:05 PM CST
Moon 9:48 AM CST (1/15) 10:14 PM CST (1/15)
Length of Visible Light 5h 59m
Length of Day
1h 22m
Waxing Crescent, 19% of the Moon is Illuminated
Jan 15
Waxing Crescent
Jan 18
First Quarter
Jan 26
Full
Feb 3
Last Quarter
Feb 10
New

Hourly Weather History & Observations

Time (CST) Temp. Windchill Dew Point Humidity Pressure Visibility Wind Dir Wind Speed Gust Speed Precip Events Conditions
12:00 AM -49 °F - - % 29.87 in 5 mi North 2.3 mph - -   Mist
12:00 AM -49.0 °F - - N/A% 29.87 in 5.0 mi North 3.5 mph - N/A   Clear
1:00 AM -49.0 °F - - N/A% 29.87 in 5.0 mi North 4.6 mph - N/A   Clear
2:00 AM -49.0 °F - - N/A% 29.87 in 7.0 mi North 3.5 mph - N/A Fog Clear
3:00 AM -49.0 °F - - N/A% 29.86 in 7.0 mi North 5.8 mph - N/A Fog Clear
4:00 AM -47.2 °F -65.0 °F - N/A% 29.84 in 10.0 mi North 4.6 mph - N/A Fog Clear
5:00 AM -45.4 °F -59.7 °F - N/A% 29.83 in 10.0 mi NNE 3.5 mph - N/A Fog Clear
6:00 AM -43 °F - - % 29.82 in 10 mi Calm Calm - - Snow Light Snow
6:00 AM -41.8 °F - - N/A% 29.82 in 10.0 mi Calm Calm - N/A Fog , Snow Light Snow
7:00 AM -41.8 °F - - N/A% 29.81 in 10.0 mi Calm Calm - N/A Fog , Snow Light Snow
8:00 AM -41.8 °F - - N/A% 29.79 in 8.0 mi SSE 2.3 mph - N/A Fog , Snow Light Snow
9:00 AM -38.2 °F - - N/A% 29.75 in 6.0 mi Calm Calm - N/A Snow Light Snow
10:00 AM -34.6 °F - - N/A% 29.73 in 8.0 mi Calm Calm - N/A Snow Light Snow
11:00 AM -34.6 °F -47.4 °F -40.0 °F 75% 29.71 in 8.0 mi SE 3.5 mph - N/A Snow Light Snow
12:00 PM -35 °F - -41 °F 57% 29.69 in 15 mi SSE 2.3 mph - - Snow Light Snow
1:00 PM -34.6 °F -47.4 °F -40.0 °F 75% 29.68 in 10.0 mi SSE 3.5 mph - N/A Snow Light Snow
2:00 PM -31.0 °F - -38.2 °F 68% 29.66 in 10.0 mi West 2.3 mph - N/A Snow Light Snow
3:00 PM -23.8 °F -43.2 °F -29.2 °F 76% 29.65 in 10.0 mi WNW 8.1 mph - N/A Snow Light Snow
4:00 PM -20.2 °F -43.4 °F -25.6 °F 76% 29.62 in 10.0 mi NW 12.7 mph - N/A Snow Light Snow
5:00 PM -18.4 °F -41.2 °F -22.0 °F 84% 29.61 in 9.0 mi NW 12.7 mph - N/A Snow Light Snow
6:00 PM -16 °F - -24 °F 52% 29.59 in 10 mi NW 10.4 mph - - Snow Light Snow
6:00 PM -16.6 °F -36.8 °F -23.8 °F 70% 29.59 in 10.0 mi NW 10.4 mph - N/A Snow Light Snow
7:00 PM -16.6 °F -32.9 °F -23.8 °F 70% 29.57 in 12.0 mi NNW 6.9 mph - N/A Snow Light Snow
8:00 PM -16.6 °F - -23.8 °F 70% 29.56 in 12.0 mi NNW 2.3 mph - N/A Snow Light Snow
9:00 PM -18.4 °F -40.2 °F -25.6 °F 70% 29.55 in 12.0 mi NNW 11.5 mph - N/A Snow Light Snow
10:00 PM -18.4 °F -31.4 °F -27.4 °F 63% 29.53 in 13.0 mi North 4.6 mph - N/A Snow Light Snow
11:00 PM -20.2 °F -41.3 °F -25.6 °F 76% 29.53 in 14.0 mi NW 10.4 mph - N/A Snow Light Snow